Theta_e
343 345 344 344 348 350 351 351 355 359 361 357 355 357 359 361 362 364 363 362 361 358 355 351 348 350 354 353 352 353 353 354 351 347 345 350 351 351 352 351 351 351 352 352 350 351 352 353 353 351 351 350 348 347 346 347 348 348 348 348 347 346 346 346 346 347 350 351 351 351 350 351 351 349 350 349 350 351 351 352 352 352 352 351 351 350 350 350 350 351 351 351 351 351 351 351 350
344 345 343 347 349 352 353 353 358 356 355 355 354 359 360 362 362 363 364 363 362 357 352 349 350 354 355 353 351 352 353 351 349 349 349 350 351 351 352 351 351 351 352 352 350 351 352 354 353 352 351 351 351 349 348 348 348 348 347 348 346 344 346 346 347 349 350 351 351 351 351 351 351 350 351 351 352 352 351 351 351 351 351 350 350 350 350 350 351 351 350 351 350 350 351 351 350
343 345 345 349 350 351 354 356 360 352 351 355 355 361 362 363 363 363 363 362 359 353 352 352 354 356 355 355 354 354 353 349 346 347 349 351 351 351 351 351 351 351 352 351 351 352 352 352 352 351 349 350 350 349 348 347 347 347 347 348 344 342 345 346 348 350 350 352 352 351 352 352 352 352 352 352 352 351 351 351 351 351 350 349 349 350 351 351 350 348 349 350 350 350 350 351 350
343 347 348 350 352 352 357 360 363 354 351 355 354 360 363 364 362 362 362 360 355 351 353 354 355 355 356 357 354 354 353 349 348 349 350 352 351 351 351 351 351 351 351 352 352 353 353 353 351 349 349 349 349 348 348 348 349 349 348 349 344 340 344 347 349 350 350 351 351 352 352 351 351 352 352 353 352 350 351 351 351 351 350 350 351 351 352 351 350 348 349 349 349 350 349 350 350
344 348 349 351 355 355 359 361 362 356 354 357 354 360 365 362 361 362 360 357 355 354 355 355 356 355 354 355 352 354 352 348 349 350 350 351 352 352 351 352 351 352 352 352 352 353 353 352 351 349 349 349 349 349 349 349 350 350 349 348 342 338 343 348 350 350 350 350 351 352 352 351 350 351 352 352 352 351 350 350 350 351 351 351 351 352 349 348 348 349 350 349 348 349 349 350 350
347 349 350 351 355 355 358 356 353 352 356 361 357 362 365 360 361 361 359 356 355 355 356 356 355 354 354 352 351 352 349 349 350 350 351 351 352 352 352 352 351 352 352 352 352 353 352 352 352 351 351 350 350 350 349 349 350 350 349 345 339 338 343 349 350 350 350 350 352 352 352 351 350 351 352 351 351 351 349 349 349 350 351 351 351 351 349 347 347 348 349 349 349 349 349 350 350
349 351 351 354 356 355 359 353 350 353 358 362 361 364 364 361 361 359 359 357 357 356 356 356 353 355 356 352 351 352 350 350 350 350 351 352 352 352 352 352 352 352 352 351 352 352 352 352 352 351 351 351 349 349 349 349 350 350 347 342 340 343 347 350 350 349 349 351 352 352 353 350 349 351 351 350 350 351 350 350 350 350 351 351 352 351 349 348 346 348 348 349 349 348 349 349 349
349 352 353 357 359 357 357 352 352 358 360 362 362 363 363 361 359 359 360 358 358 357 356 355 352 357 356 352 354 353 351 351 351 351 352 352 352 352 353 352 352 353 352 352 351 352 352 351 351 351 350 350 349 348 348 350 349 347 344 342 345 349 350 350 350 349 349 352 352 352 353 351 350 350 349 350 350 351 350 350 351 351 350 349 351 351 349 347 346 348 348 349 349 348 348 348 348
350 353 355 356 360 357 353 352 355 361 362 362 361 361 362 359 358 359 360 359 358 357 357 354 352 357 356 353 355 352 352 352 351 352 352 352 353 353 353 352 353 353 353 351 351 351 352 351 351 351 351 350 348 346 346 346 344 342 342 344 349 352 351 351 350 349 350 353 353 352 353 352 350 349 349 350 351 352 350 350 351 351 349 347 347 349 350 348 346 347 348 349 349 348 348 348 348
352 354 356 359 359 352 349 353 358 362 362 361 362 362 361 359 359 360 360 360 358 358 357 353 352 356 355 354 355 352 352 352 351 352 352 353 353 353 353 353 353 353 353 352 352 351 351 351 351 352 352 350 345 341 340 339 339 341 346 349 351 351 350 350 350 350 352 353 352 352 353 352 350 348 348 349 350 351 351 351 351 349 346 345 345 348 350 348 346 347 348 347 348 348 348 348 348
356 354 356 360 355 349 349 354 359 363 360 361 362 361 360 359 360 359 359 359 358 358 355 353 355 354 354 355 354 353 352 352 351 352 352 353 353 353 353 353 353 353 354 353 352 352 352 352 351 352 351 347 341 340 340 341 344 347 350 351 351 350 350 349 349 351 353 353 351 351 352 352 350 349 348 349 350 351 352 352 350 347 344 345 346 348 350 348 347 347 348 347 347 348 348 348 348
358 358 358 359 354 354 354 355 360 364 361 363 364 361 360 359 359 359 360 359 357 358 355 355 356 353 354 355 355 352 351 351 351 352 352 353 353 353 353 353 353 353 353 353 352 352 353 353 351 352 349 345 342 344 347 348 349 350 351 352 351 351 351 349 349 352 353 352 351 350 352 353 352 352 351 351 351 349 350 351 350 347 345 345 346 348 350 349 348 347 347 348 348 348 348 349 348
356 359 360 358 355 358 358 357 361 364 365 367 365 361 360 358 359 358 359 358 357 359 356 354 353 352 355 354 353 351 351 351 351 352 352 353 353 353 353 353 352 352 352 353 353 353 353 353 352 351 348 346 346 349 350 352 352 351 352 352 352 352 351 349 350 352 353 351 350 350 351 352 352 352 352 352 351 350 350 350 350 348 345 345 346 347 349 348 349 348 348 348 348 349 349 348 347
354 358 361 359 357 359 359 359 360 362 365 366 363 360 360 360 358 357 358 358 359 359 355 352 350 354 355 354 353 349 349 351 351 352 352 352 353 352 352 352 352 352 352 353 353 353 354 353 352 350 349 349 350 352 353 353 352 351 352 353 353 353 350 349 351 352 352 351 349 350 351 351 351 351 351 351 351 350 350 349 348 348 347 346 346 347 348 348 349 349 349 348 348 349 348 348 347
354 356 360 359 356 356 357 359 359 360 362 363 361 360 362 360 357 357 358 360 360 355 352 352 349 354 354 353 353 349 350 351 351 352 352 352 352 352 352 352 351 351 352 353 353 353 353 352 351 350 350 351 352 354 355 354 353 352 352 352 353 352 350 350 351 352 352 351 349 350 350 350 350 350 350 350 349 349 350 350 347 346 348 348 346 346 348 348 348 350 349 348 348 348 347 347 348
352 354 361 359 352 353 355 360 360 358 360 362 360 360 362 361 358 359 359 359 357 353 353 353 350 353 352 351 351 349 351 351 351 351 352 352 352 352 352 352 351 351 352 353 353 353 353 351 349 350 350 351 351 353 355 354 353 353 352 352 353 352 350 352 351 351 352 351 349 350 351 351 351 350 350 349 350 350 351 351 347 345 347 348 348 347 347 348 348 349 349 348 347 348 348 347 347
351 356 361 356 351 352 355 361 359 356 361 362 361 361 363 363 360 359 358 356 356 355 355 353 351 351 350 350 351 350 350 350 351 351 351 352 352 352 351 352 352 352 352 352 353 353 351 349 348 350 351 351 351 352 353 353 352 353 352 352 353 352 352 353 351 352 352 350 350 351 351 351 351 350 349 349 350 351 351 351 348 346 345 347 350 348 346 347 347 347 348 348 348 348 349 348 347
355 362 359 351 352 354 355 360 357 358 364 362 361 362 363 365 362 358 358 357 357 356 355 354 352 352 351 352 351 350 350 350 351 351 351 352 352 352 351 352 352 352 352 352 352 351 350 349 349 351 352 351 352 352 352 352 352 352 352 352 353 352 353 353 351 352 351 350 351 349 349 350 350 350 351 351 351 351 352 351 349 346 344 345 349 349 348 348 346 345 346 347 348 348 348 348 347
355 362 357 352 356 355 354 356 357 359 364 361 360 361 362 363 361 359 359 358 357 357 356 354 352 352 352 352 351 350 350 350 351 351 351 351 351 351 351 351 352 352 352 352 352 351 350 350 351 351 352 352 352 352 352 351 351 351 351 351 352 352 352 352 352 352 351 351 351 348 348 349 351 351 352 352 351 352 351 350 350 349 346 345 348 350 351 350 348 346 346 346 348 348 348 348 347
354 357 356 356 356 354 354 357 358 357 361 361 360 360 361 361 359 359 360 358 358 359 356 354 354 353 351 350 351 351 350 350 350 350 350 350 350 350 350 351 351 351 351 352 352 351 350 351 352 352 352 352 352 352 352 352 351 351 351 351 352 352 351 351 351 351 350 350 350 349 349 349 350 351 351 351 352 352 350 349 350 350 348 345 346 349 350 350 350 348 347 347 348 348 348 348 347
352 355 357 357 354 355 354 357 360 357 360 362 360 361 360 359 358 358 360 359 359 359 356 354 353 352 350 349 350 351 350 350 350 350 350 349 349 349 349 350 350 351 351 351 352 352 351 352 352 352 352 353 352 352 352 352 351 351 351 351 352 351 351 351 350 350 350 349 349 350 350 349 349 350 350 350 351 350 349 348 348 349 348 344 344 347 349 349 350 349 349 350 350 349 348 348 348
350 352 354 354 353 355 353 354 359 359 359 360 361 362 360 359 359 358 358 361 360 357 353 352 351 350 349 348 349 351 350 350 350 350 349 349 349 349 349 349 350 351 351 351 351 352 352 353 352 352 352 352 352 351 352 352 351 351 351 352 351 351 351 350 351 350 349 349 349 349 349 350 349 349 350 350 350 350 349 349 348 347 347 345 343 346 348 349 350 350 350 351 352 351 349 348 348
349 349 348 349 349 351 351 352 357 359 359 361 361 361 359 359 361 358 357 360 359 353 352 351 351 351 351 350 350 349 349 350 350 350 350 349 350 349 349 349 350 350 351 351 351 352 353 352 352 352 353 352 352 351 352 351 351 352 351 351 351 351 351 351 351 351 349 349 349 349 350 350 350 350 350 350 350 350 350 349 348 346 346 345 344 346 346 348 349 350 350 351 352 352 350 350 349
347 349 347 345 345 346 347 349 356 357 358 361 360 358 359 361 362 359 357 359 356 352 351 351 352 353 352 350 349 348 349 350 350 350 350 349 350 350 349 349 350 350 351 351 352 352 352 352 352 352 352 352 351 351 352 352 352 351 350 350 351 351 351 352 351 351 349 348 349 349 350 350 351 351 350 350 350 350 349 348 347 346 348 346 345 347 348 348 349 349 349 350 352 352 351 351 350
345 347 346 344 343 343 342 347 354 356 357 359 357 358 359 359 360 359 358 357 354 352 351 351 352 351 350 348 347 349 349 350 350 349 350 350 350 350 350 350 350 350 351 351 352 352 352 352 352 352 352 352 351 351 351 352 351 350 350 351 351 351 351 352 352 351 350 348 349 348 349 350 351 351 350 349 349 349 347 346 346 348 349 349 349 350 349 349 350 350 350 351 352 352 352 351 351
343 343 344 340 338 337 338 347 355 357 357 357 357 360 358 356 358 359 358 355 353 352 351 350 350 349 349 348 347 348 349 350 350 349 350 349 350 350 350 350 350 350 351 351 352 352 352 352 352 353 353 352 351 351 352 352 351 350 351 351 351 351 351 351 351 351 350 349 348 348 349 349 350 351 348 347 347 346 345 345 347 349 350 351 352 351 349 349 351 351 352 353 353 352 352 352 352
336 336 335 332 337 341 340 349 356 357 357 356 358 360 358 355 357 360 357 353 352 352 352 351 350 350 349 348 348 350 350 350 350 350 350 350 350 351 350 350 350 350 351 351 351 351 352 352 352 352 352 352 351 351 352 352 351 350 350 350 351 351 351 350 349 350 350 349 349 348 349 349 350 349 347 345 345 344 346 347 348 350 351 351 351 351 349 349 350 351 352 352 352 351 351 351 351
329 330 329 332 347 353 349 354 357 356 358 355 357 360 358 356 357 360 357 352 351 352 353 352 351 350 350 349 349 351 351 350 351 351 351 351 351 351 350 350 350 351 351 351 351 352 352 352 352 352 352 351 351 351 352 352 350 350 349 349 350 351 350 349 349 349 349 349 349 349 349 349 349 348 345 344 343 345 347 348 350 351 352 351 350 349 349 347 349 350 350 350 349 349 350 350 350
328 328 328 337 351 357 355 357 357 356 357 354 355 357 358 360 357 358 355 351 352 352 353 353 352 350 349 349 349 349 351 351 351 350 351 351 351 351 350 351 351 351 351 351 352 352 352 352 352 352 351 351 350 351 351 351 350 350 350 350 349 350 349 349 349 349 349 349 349 349 349 348 348 347 345 343 344 346 346 348 351 351 351 351 349 349 349 348 350 351 350 349 348 348 350 350 350
329 328 328 335 340 351 359 357 356 358 356 354 354 348 351 362 358 355 355 352 352 354 353 353 352 350 349 349 349 348 350 352 351 350 350 351 350 351 351 351 351 351 351 351 351 352 352 352 352 352 352 351 351 351 351 351 350 350 350 350 349 349 349 349 350 350 349 349 349 349 348 348 347 346 346 346 347 349 349 350 351 351 351 351 350 350 350 351 351 352 351 350 349 348 350 350 351
328 328 330 335 330 338 358 357 356 360 353 355 355 343 345 358 357 355 355 352 353 354 354 353 352 351 349 348 349 349 350 353 352 350 350 350 350 350 350 351 351 352 352 351 351 352 352 352 352 352 352 352 351 351 351 350 350 351 351 350 349 349 350 350 350 350 350 350 350 348 348 348 347 347 349 349 349 350 351 351 351 351 350 350 350 349 350 352 352 352 351 351 351 350 351 351 351
328 325 324 332 330 337 360 358 355 361 354 355 354 345 347 355 355 355 354 351 353 354 354 353 352 351 350 348 349 349 350 352 352 351 350 349 348 349 350 350 351 352 352 352 352 352 352 351 352 352 351 352 352 351 351 351 350 350 350 350 350 349 350 350 350 350 350 350 350 349 348 348 348 348 350 350 350 350 351 352 350 350 349 349 350 349 351 352 353 353 351 351 353 352 352 351 351
327 326 320 324 329 336 353 359 356 357 356 357 353 350 352 353 354 356 354 352 353 354 355 354 353 352 351 349 349 349 350 351 352 352 351 350 349 349 349 350 350 352 353 353 353 352 352 352 352 352 351 352 352 352 351 351 350 350 350 350 350 350 351 351 350 349 350 350 350 349 349 349 349 349 349 350 349 350 351 351 350 349 349 350 348 348 351 351 353 355 353 351 353 353 352 351 351
324 326 321 319 326 330 337 352 358 355 356 359 357 356 356 353 356 357 354 352 353 355 355 354 354 352 351 350 349 350 350 350 351 353 352 351 351 350 349 350 351 352 353 353 353 352 352 353 352 352 352 352 352 352 351 351 351 350 350 350 350 350 351 352 350 349 350 350 349 348 348 349 349 349 350 349 349 349 349 350 350 350 350 349 348 349 351 351 353 354 354 352 351 352 354 352 350
323 322 320 317 321 325 330 344 356 357 356 358 357 358 358 355 356 357 355 353 353 355 355 353 354 352 352 351 349 350 350 350 351 353 353 351 351 351 350 350 351 352 352 353 353 352 352 353 353 352 352 352 352 351 351 351 352 351 350 351 351 350 351 352 351 349 349 350 349 347 347 348 349 349 350 350 349 349 348 349 350 350 351 350 349 351 353 352 353 353 354 353 352 352 353 351 350
326 323 322 319 318 321 329 334 345 358 358 358 359 356 358 357 355 357 356 354 354 354 354 354 353 352 352 351 350 350 350 350 351 352 353 352 351 351 350 350 351 352 352 353 354 352 352 352 352 352 352 352 352 352 351 351 352 352 352 352 352 352 352 350 349 350 350 349 349 347 347 348 349 349 350 350 350 350 349 349 350 351 351 351 351 354 355 353 353 353 354 354 355 355 353 352 351
328 326 323 322 320 320 326 326 333 354 356 353 359 356 357 358 355 357 355 355 355 354 354 354 353 353 351 351 350 350 350 350 351 352 352 352 352 351 351 351 351 352 353 354 354 353 352 351 351 353 353 352 352 352 352 352 352 352 352 353 353 353 350 348 348 349 350 350 348 348 348 348 348 349 350 350 351 350 349 349 350 350 351 351 352 354 354 352 351 353 354 354 356 356 355 354 352
328 328 324 322 322 321 326 325 326 346 351 347 357 357 355 357 354 355 355 356 357 355 355 354 353 352 351 352 351 350 349 349 350 351 351 351 351 351 351 351 352 352 354 354 354 354 354 352 351 352 352 352 353 350 348 349 350 352 353 353 354 353 348 347 349 348 348 350 349 349 348 347 348 349 349 351 351 351 350 350 350 350 351 351 351 352 351 351 351 353 355 356 355 356 355 354 352
327 327 325 322 323 322 324 324 324 341 346 341 350 350 347 351 352 354 355 356 357 355 355 354 354 353 352 352 351 350 349 349 349 349 351 351 350 351 351 351 352 352 354 354 354 355 354 354 353 351 350 351 352 348 344 345 347 349 352 352 352 352 349 348 350 349 348 349 348 349 349 348 348 348 349 350 351 351 351 351 350 350 350 351 351 352 352 352 352 352 355 356 356 355 355 354 352
326 327 324 321 323 321 318 321 327 340 343 339 344 342 339 345 349 352 354 354 356 355 354 354 354 353 351 351 350 350 350 349 349 347 349 350 350 351 351 351 352 352 353 354 354 355 355 355 354 349 347 348 348 347 344 343 345 347 349 350 349 350 348 347 348 348 348 349 348 348 348 349 347 348 350 351 351 351 351 351 351 350 350 350 352 352 353 354 353 353 355 356 355 354 355 355 354
326 327 325 323 325 323 320 321 325 332 335 339 340 328 327 339 345 347 351 352 355 355 355 355 354 352 351 350 349 349 349 349 349 347 347 349 350 350 351 351 352 352 353 354 354 355 355 355 353 349 347 346 346 346 345 343 345 348 350 350 350 350 349 348 349 350 350 349 350 349 348 349 349 348 350 351 351 351 351 351 350 350 350 350 351 352 355 355 353 353 354 355 355 354 355 355 355
325 326 327 326 327 326 325 324 323 320 319 329 332 318 318 336 345 346 350 353 356 356 356 356 354 353 351 351 350 348 348 348 347 347 348 349 349 350 351 351 351 352 353 354 354 354 355 355 353 351 348 347 346 347 346 344 347 350 351 351 352 352 353 352 351 352 352 350 352 351 349 350 350 349 350 351 351 351 351 351 350 351 350 351 352 353 354 354 353 354 353 354 356 354 354 356 355
323 325 327 327 328 327 325 324 321 316 314 323 328 318 316 326 337 348 352 354 357 356 357 357 355 354 351 351 351 349 348 347 346 347 347 348 349 349 350 351 351 352 353 353 354 354 355 355 353 351 350 349 348 347 346 346 348 350 351 352 353 353 354 352 349 350 351 349 351 351 349 350 350 350 350 350 350 351 351 351 351 351 351 352 353 352 354 355 355 354 352 354 356 354 354 356 356
323 324 325 325 327 326 326 324 321 318 318 320 325 323 317 318 331 351 355 354 358 358 357 357 356 355 353 351 350 350 348 347 346 346 346 347 349 349 349 350 350 351 352 353 354 354 355 355 353 352 351 350 349 347 346 345 347 349 350 351 352 352 353 352 348 348 349 349 350 350 350 350 349 349 349 349 350 351 352 351 351 352 352 353 353 353 355 356 356 353 351 353 354 353 355 357 357
326 325 324 325 326 326 326 324 321 320 318 315 321 327 320 318 334 353 357 355 355 357 356 356 357 355 354 352 350 350 348 347 346 345 346 347 348 348 348 349 350 350 351 352 353 354 355 354 353 352 352 351 350 348 346 345 346 348 350 351 351 350 351 351 348 348 349 349 349 350 350 350 349 349 348 348 349 350 351 352 352 353 353 353 354 356 356 357 356 354 352 353 354 354 354 355 357
326 323 322 323 324 325 325 324 320 318 316 313 319 325 319 319 333 346 350 348 347 350 350 350 355 355 354 354 351 350 349 348 347 345 347 348 347 348 348 348 350 350 350 351 352 353 354 355 353 352 353 351 351 349 347 346 346 348 350 351 351 350 349 349 349 348 348 348 349 350 350 351 350 350 349 348 348 349 351 353 354 354 354 355 355 356 357 356 355 354 354 354 355 355 354 354 356
324 322 323 323 322 323 323 322 318 316 316 314 317 325 321 318 328 338 340 342 344 347 347 345 349 353 354 354 352 351 350 349 348 346 347 348 347 347 347 348 349 349 350 351 351 352 354 354 353 353 352 352 351 350 348 347 347 349 350 350 350 350 349 348 349 349 348 348 349 350 350 351 351 351 351 350 349 349 351 353 354 354 354 355 355 355 356 357 356 356 354 354 354 354 355 355 357
323 324 323 321 320 321 319 318 317 316 316 314 315 323 324 320 327 336 337 341 345 345 346 346 346 348 352 353 352 351 350 349 349 348 347 348 348 348 347 348 349 349 350 351 351 352 353 353 353 353 353 352 351 349 349 348 348 349 350 350 351 350 348 348 348 348 348 348 349 350 349 349 350 351 351 352 351 350 351 352 353 354 353 354 354 354 355 355 357 357 355 355 355 355 354 354 356
324 323 320 318 318 319 318 317 317 316 316 314 315 321 325 326 330 333 335 340 344 343 343 344 344 345 349 352 352 352 351 350 349 348 349 348 348 348 347 348 349 350 351 351 350 351 352 353 353 353 353 351 350 349 349 349 349 350 350 350 351 350 349 347 347 347 347 348 349 349 349 349 349 349 350 352 352 351 350 349 351 352 351 351 353 352 352 352 355 357 356 356 357 357 356 355 355
322 320 317 317 317 319 319 318 317 317 315 314 316 318 322 327 330 330 332 335 340 341 340 342 343 343 347 350 351 351 350 351 350 349 349 348 350 349 347 348 349 350 350 350 351 351 352 352 352 353 352 351 350 349 349 349 350 350 350 350 350 350 349 348 347 347 347 347 347 348 349 349 349 348 349 350 350 350 349 348 348 349 349 349 350 351 351 352 354 356 356 357 358 357 355 355 355
321 321 320 317 316 317 317 316 315 315 314 313 315 316 320 326 329 329 329 332 338 340 339 341 343 342 344 347 349 350 350 350 350 350 349 349 351 350 348 348 348 349 349 350 350 351 352 352 352 352 352 351 350 350 349 349 350 350 350 350 350 351 349 348 348 347 347 346 346 347 348 349 349 348 348 348 349 349 349 348 347 348 348 349 349 350 351 352 353 355 355 356 357 356 354 354 356
319 320 319 317 316 317 317 315 315 315 313 313 314 316 322 328 328 328 329 333 339 340 338 340 342 342 343 345 347 348 349 350 350 350 350 350 352 351 349 348 348 349 349 349 350 351 351 351 351 351 351 351 350 349 350 350 350 350 350 350 350 350 350 349 349 348 348 346 346 346 347 348 348 348 348 348 348 348 349 348 347 348 348 349 349 350 351 352 352 353 355 355 355 355 353 353 355
317 317 316 316 317 319 317 315 316 315 313 315 316 317 322 326 327 328 331 335 340 341 339 340 341 341 342 342 343 344 345 348 349 350 350 350 352 351 350 348 347 348 348 349 350 351 351 351 351 351 351 351 350 349 350 350 351 351 351 350 350 350 350 349 349 349 348 348 347 346 347 347 347 348 348 347 348 348 348 348 348 348 348 348 349 349 350 352 352 352 354 353 354 355 353 353 354
316 315 315 316 316 318 319 316 316 314 313 317 320 319 320 323 326 330 335 338 341 341 339 339 340 340 341 341 341 342 342 344 346 349 350 351 352 351 351 349 348 348 348 349 350 350 350 350 350 351 352 352 351 350 351 351 351 351 351 350 350 350 350 350 349 349 349 348 348 347 346 347 347 347 348 348 347 347 347 347 348 348 348 347 348 349 350 352 352 353 353 352 353 353 352 352 352
313 313 314 315 315 317 319 317 316 315 315 320 322 320 320 324 328 333 338 340 342 342 340 338 339 339 339 339 340 341 342 342 344 347 348 350 352 352 351 350 348 348 348 348 349 349 349 350 350 351 351 351 350 350 351 351 350 351 351 350 350 350 350 349 350 349 349 349 348 347 346 346 347 347 347 347 347 347 347 347 347 347 347 347 347 347 349 351 352 352 353 354 354 352 351 352 352
313 313 313 314 315 316 317 317 315 315 318 322 322 321 323 326 330 334 339 341 341 341 340 338 337 337 337 338 338 339 341 342 344 346 347 349 351 351 351 351 349 348 348 347 348 348 349 349 350 350 351 351 351 351 351 351 351 351 351 350 350 350 350 350 349 349 349 349 348 347 346 346 346 346 347 347 347 347 346 346 346 346 346 347 347 346 347 348 350 352 353 355 355 353 352 353 355
312 313 313 313 314 315 316 316 316 316 319 322 321 324 326 326 329 336 339 340 339 339 339 337 336 336 336 336 337 338 339 341 343 346 347 348 350 351 350 350 350 348 347 347 347 347 348 348 349 349 350 351 351 351 351 352 351 351 351 350 350 350 349 349 349 349 349 348 348 347 346 345 345 345 346 346 346 346 346 346 346 345 345 345 347 347 346 346 347 349 351 353 353 352 352 354 355
311 311 311 311 312 315 315 316 316 316 319 321 321 327 328 323 328 335 337 337 337 337 337 336 335 335 335 335 335 336 337 338 341 344 346 348 350 350 350 350 350 349 348 348 347 347 347 347 348 348 349 350 350 351 351 351 351 351 351 350 350 350 349 349 349 349 348 348 347 346 345 345 345 344 344 344 345 345 345 345 345 345 344 344 344 346 346 345 346 347 348 351 352 351 351 353 354
Wind_Speed
11 12 12 13 10 8 4 1 1 1 1 2 2 1 1 1 1 2 5 5 5 5 5 9 11 7 4 3 6 7 7 3 1 1 3 7 13 16 13 16 18 18 18 18 21 21 18 18 19 20 19 17 18 17 16 16 16 16 15 14 13 13 13 12 12 12 11 11 11 12 11 11 11 12 11 11 12 11 11 11 11 11 11 10 10 10 10 11 10 10 11 11 11 12 13 12 13
13 13 14 12 8 4 2 1 1 1 1 2 1 1 1 1 2 3 5 5 5 7 9 11 10 6 6 7 8 7 8 7 3 4 7 13 16 14 16 18 18 18 17 18 20 19 18 18 19 20 20 19 19 18 17 17 16 15 15 14 13 12 13 12 12 12 11 11 12 12 12 11 12 12 11 12 12 12 12 11 11 11 11 10 10 10 10 10 10 9 11 11 11 12 13 12 13
15 14 14 9 4 2 1 1 1 0 1 1 1 1 1 1 3 4 4 4 8 11 11 12 9 6 6 8 4 3 5 5 7 9 9 15 14 13 18 19 19 18 17 19 19 17 17 18 19 18 19 19 18 18 18 17 17 16 15 13 12 12 12 12 12 12 11 11 12 12 12 12 11 11 12 12 11 12 12 12 12 11 11 10 11 11 11 10 8 9 11 11 11 12 13 13 14
17 13 10 5 2 1 1 1 1 1 2 1 1 1 1 0 6 6 5 6 11 13 11 10 7 3 2 6 3 4 6 5 9 10 10 13 13 17 21 20 20 19 17 17 17 17 16 18 18 18 18 18 17 17 17 16 16 15 13 12 12 12 12 12 12 12 11 11 11 12 12 11 11 11 12 12 11 12 12 13 12 11 10 10 11 12 12 10 8 10 11 11 11 11 13 13 13
18 11 4 1 1 1 1 1 1 2 1 1 2 2 2 2 7 7 7 9 11 10 8 7 5 3 4 6 2 2 6 7 9 11 13 14 16 20 21 21 21 19 17 17 18 16 16 19 18 17 17 17 17 16 16 15 14 13 12 12 12 12 12 12 12 11 11 10 11 12 12 11 10 11 12 12 11 11 11 12 13 12 10 10 12 14 13 11 9 11 13 13 12 12 13 13 13
15 8 2 1 0 0 1 2 2 2 2 1 2 2 2 4 8 8 10 10 8 6 5 5 7 7 6 6 5 4 5 7 10 11 14 18 19 21 22 22 20 19 17 18 18 16 17 18 17 17 16 16 15 14 14 14 13 12 11 12 12 12 11 12 11 11 10 10 11 12 12 10 10 11 11 12 11 11 11 13 14 12 11 11 14 16 14 11 10 12 14 14 12 12 14 14 13
10 4 2 1 1 1 2 2 2 2 1 1 2 2 3 6 8 10 11 10 8 5 4 6 9 9 6 4 6 7 4 6 11 12 16 21 22 21 22 21 20 19 17 18 18 16 17 17 16 16 15 14 14 13 13 13 12 11 11 12 11 11 11 11 10 10 10 10 11 12 12 10 9 10 11 11 11 11 12 13 13 12 11 12 16 18 16 12 10 12 14 13 13 13 14 15 14
6 2 1 2 1 1 2 2 2 2 1 1 1 1 3 8 8 10 11 9 8 7 6 8 8 8 6 3 5 6 6 8 12 15 20 23 23 22 21 21 20 19 18 18 18 16 16 16 15 14 14 13 13 12 12 11 11 10 11 11 11 10 10 10 10 9 9 10 11 12 12 10 9 10 11 12 11 11 12 14 13 11 11 13 17 20 18 13 11 12 13 12 13 14 13 14 15
3 1 1 1 1 1 2 2 2 1 1 1 0 1 5 8 8 9 10 8 9 9 8 7 5 5 7 6 7 6 8 12 16 20 22 22 22 21 21 21 20 19 18 19 18 16 15 15 14 14 14 13 12 11 10 10 10 11 11 10 10 10 10 10 9 9 9 10 11 12 12 11 10 10 11 12 12 12 13 14 13 11 12 13 16 20 20 15 11 12 13 13 14 15 14 13 14
2 1 0 1 1 2 1 1 3 1 2 3 1 4 6 6 7 9 9 10 10 9 6 5 5 8 9 8 7 6 10 15 20 22 21 21 21 20 20 19 19 19 18 18 17 16 15 15 14 14 13 12 11 11 10 11 11 11 10 9 9 10 10 10 9 9 9 9 10 12 13 12 11 10 11 11 12 13 12 13 13 11 12 14 16 19 20 16 12 13 15 14 15 15 14 15 15
1 0 1 1 1 2 2 2 2 2 3 3 3 5 5 6 7 7 9 11 9 8 7 5 9 12 11 8 5 7 13 18 22 23 22 21 20 19 20 18 18 17 17 17 16 16 15 14 13 13 11 11 11 11 11 11 11 10 9 9 9 10 10 10 9 9 9 9 9 11 13 13 13 13 12 10 11 13 13 13 13 12 12 13 16 18 19 18 13 13 15 16 15 15 14 14 15
1 0 1 1 2 2 2 3 2 1 4 2 4 4 3 6 7 8 10 11 9 8 6 4 8 10 10 7 5 10 16 18 21 23 22 20 19 19 18 17 16 15 15 16 16 15 14 12 12 11 10 10 10 10 10 10 10 9 9 9 9 10 10 9 9 8 8 8 9 10 12 13 14 14 13 11 11 14 14 12 14 14 13 12 15 17 19 18 15 13 15 16 16 15 15 14 14
1 1 1 1 2 3 4 3 1 1 2 1 4 4 4 6 7 9 10 11 9 7 5 5 9 7 8 8 7 11 15 19 22 23 22 20 19 18 17 16 15 15 15 15 14 14 12 12 11 10 9 9 9 9 9 9 9 9 9 9 10 10 9 9 9 8 8 8 9 10 11 12 13 13 13 13 13 15 13 12 15 15 13 12 14 16 18 17 15 15 15 15 15 15 14 15 14
1 1 1 1 2 2 3 2 1 1 1 4 5 5 5 4 5 7 9 11 7 4 6 8 10 7 8 9 8 9 14 21 23 22 21 20 19 18 17 16 16 15 14 14 13 12 12 11 11 10 9 9 9 9 9 9 8 9 9 9 9 9 9 9 9 8 8 8 10 10 11 11 12 12 13 13 14 15 14 13 14 15 15 13 13 14 16 16 16 16 15 14 14 14 14 14 14
2 1 1 2 2 2 1 1 0 1 2 5 6 5 6 5 5 7 7 9 6 4 8 9 6 4 8 10 9 11 18 24 24 23 21 20 19 18 18 17 16 15 14 13 12 12 11 11 10 9 9 9 9 9 9 8 9 9 9 9 9 9 9 9 9 8 8 8 9 10 11 11 11 12 13 13 14 15 14 12 14 15 16 14 13 14 15 16 16 16 16 15 14 14 14 14 14
2 2 2 1 2 2 1 1 0 0 2 6 6 5 7 6 4 5 3 4 7 7 6 7 4 1 7 10 12 18 23 26 24 23 21 20 20 18 18 16 16 15 14 13 12 12 11 10 10 9 9 9 9 9 9 8 9 9 9 9 9 9 9 9 9 9 9 9 10 10 11 11 10 12 12 13 13 13 12 11 13 15 15 15 14 13 13 15 15 15 16 16 15 14 14 15 15
1 1 2 1 1 2 2 0 1 1 3 7 7 5 6 6 3 3 3 5 10 8 5 5 3 2 8 11 18 25 26 26 25 23 22 20 19 18 17 16 15 14 13 13 11 11 10 10 10 9 9 9 9 9 9 9 9 9 9 9 9 9 9 9 9 9 9 9 10 10 11 10 10 12 13 13 12 11 10 10 13 14 15 16 15 13 13 15 14 14 15 15 14 14 15 16 16
1 0 1 1 0 1 2 2 2 1 4 9 9 6 6 8 6 4 6 8 9 9 7 8 8 7 13 18 24 26 25 26 25 24 22 20 19 18 17 16 15 14 13 13 12 11 11 10 10 10 10 9 9 9 8 9 9 9 9 9 9 9 9 9 9 9 9 9 10 10 10 10 11 12 12 12 11 10 9 10 12 13 14 15 16 15 15 14 14 15 16 15 14 14 15 16 16
3 1 1 1 1 1 3 4 3 2 4 10 10 7 6 8 9 6 7 10 10 9 9 9 12 12 16 22 25 25 25 25 24 23 23 21 20 19 18 17 16 15 14 13 12 12 11 10 10 10 10 10 10 9 8 8 8 8 9 9 9 9 9 9 10 10 10 9 10 10 10 10 11 11 11 11 10 10 10 11 12 12 13 14 15 16 16 16 14 15 14 14 13 12 13 14 15
3 3 2 1 2 3 4 4 3 2 5 11 10 7 7 8 8 6 8 12 11 9 10 11 13 14 17 21 24 25 24 24 23 23 22 21 20 19 19 18 17 16 14 13 12 11 11 11 10 10 10 10 9 9 8 8 8 7 8 8 8 9 9 9 9 9 10 9 9 9 10 10 10 10 11 10 10 10 10 11 11 11 12 12 13 14 15 15 15 14 13 13 13 12 13 13 13
2 4 4 1 1 4 4 3 1 2 7 11 10 8 8 8 7 6 10 11 9 9 10 12 15 18 20 20 23 25 24 23 23 22 22 21 20 18 17 17 17 16 14 13 12 11 11 11 10 10 10 9 9 9 8 7 8 7 8 7 8 8 8 9 9 9 9 9 9 8 9 9 9 10 10 9 9 9 10 10 10 10 10 10 11 11 12 13 13 12 11 11 11 11 11 11 10
2 5 6 5 4 6 5 2 1 4 7 10 10 9 8 8 6 8 12 6 4 7 9 13 17 20 21 22 23 23 22 22 22 22 22 21 20 18 17 17 16 15 14 13 12 12 12 11 10 10 10 9 9 8 8 8 8 7 7 7 7 7 8 8 8 9 9 9 8 8 8 8 8 9 8 8 8 9 9 10 9 9 9 10 10 10 10 10 10 10 10 10 9 9 10 9 9
4 5 6 8 7 8 5 2 4 5 8 10 10 8 8 9 7 9 10 1 2 7 10 14 17 20 22 23 22 21 21 20 21 22 21 21 20 18 18 18 16 16 15 13 12 12 12 11 11 10 10 10 9 8 8 8 8 7 7 7 7 7 7 8 8 8 8 8 7 7 7 7 8 8 7 7 8 8 9 9 9 10 10 10 9 9 9 8 8 8 8 8 8 8 8 8 7
6 6 7 8 7 9 8 4 6 7 8 9 8 8 9 10 6 8 9 1 5 9 11 14 17 20 22 21 20 19 20 20 21 21 20 19 18 17 17 16 16 16 14 13 13 12 11 11 11 11 10 10 9 9 8 8 7 7 7 7 7 7 7 7 7 7 7 7 7 6 7 7 7 8 7 7 7 8 8 9 9 10 10 9 9 8 7 7 7 7 7 7 6 6 6 6 6
8 9 8 7 7 8 7 5 7 7 6 7 8 8 9 8 4 8 9 4 7 10 12 14 16 18 19 19 19 19 19 20 21 20 19 17 16 16 16 15 15 15 15 14 14 13 12 12 12 11 11 10 10 9 8 7 7 7 7 6 6 7 6 7 7 7 7 7 7 6 6 6 6 7 7 7 7 7 8 9 9 9 9 8 7 7 6 6 6 5 6 6 6 5 6 6 6
6 9 8 9 11 10 6 6 9 8 6 8 10 8 8 7 3 7 9 6 9 12 14 15 16 17 16 16 18 19 18 20 21 20 19 17 17 17 16 15 15 15 15 15 14 13 12 13 12 11 11 10 10 10 8 8 8 8 7 7 6 6 6 6 7 7 7 7 7 6 6 6 6 6 6 6 7 8 9 9 8 7 6 6 6 6 5 5 4 5 5 5 6 6 6 6 6
2 7 9 10 10 9 4 6 9 8 7 9 9 7 8 7 3 5 8 8 10 13 14 15 16 16 16 15 16 18 18 19 20 19 19 18 18 18 17 16 16 16 15 15 15 13 13 13 12 12 12 11 10 10 9 8 8 8 7 7 6 6 6 6 7 7 7 7 6 6 6 5 5 6 6 6 7 8 8 7 7 6 5 5 5 5 4 4 4 4 4 4 5 5 5 6 6
5 7 8 6 4 4 2 7 9 7 6 7 7 7 7 7 4 5 8 10 11 14 15 15 15 15 15 15 15 15 16 18 18 18 19 19 17 17 18 17 16 16 15 16 15 14 14 13 13 13 12 12 11 10 9 8 8 8 7 7 6 6 7 7 7 7 7 7 6 6 6 5 5 6 6 7 8 7 7 6 5 4 4 4 4 4 4 4 3 3 3 3 4 4 5 5 6
6 5 5 4 2 3 4 5 8 6 5 7 8 6 6 9 6 4 10 12 12 14 14 15 14 13 14 14 14 13 15 17 17 17 18 17 16 17 18 17 17 16 15 16 15 14 14 13 13 13 13 12 12 11 9 9 9 8 7 7 7 7 7 7 7 7 6 6 6 6 6 6 6 6 6 7 7 6 5 4 3 3 3 3 4 4 4 4 3 3 2 3 4 4 4 5 5
4 2 3 4 2 2 3 3 6 5 5 9 8 2 3 9 8 6 11 14 13 14 13 14 13 12 13 13 13 13 15 16 16 16 17 16 16 17 17 17 17 16 14 16 16 15 15 14 13 13 13 12 12 11 10 10 10 9 8 7 7 7 7 7 6 6 6 6 6 6 6 6 6 6 6 6 6 5 4 3 2 2 3 3 3 3 4 4 3 3 3 3 4 4 4 4 5
2 1 1 2 2 1 2 3 7 5 4 8 7 2 2 4 9 9 11 15 15 14 13 13 12 12 13 13 13 12 14 16 16 17 16 16 16 16 17 17 18 17 15 17 17 16 15 14 13 13 13 13 12 11 10 10 10 10 9 8 8 7 7 7 6 6 6 6 6 6 7 6 7 7 6 5 5 4 3 2 2 2 2 3 3 3 4 3 3 3 3 3 4 4 4 4 5
1 2 2 1 1 1 2 4 7 4 4 8 7 3 1 2 7 12 11 14 16 14 14 14 13 13 13 13 13 11 12 15 16 16 16 17 16 16 17 18 18 18 17 17 17 17 16 15 14 13 14 14 12 11 10 10 10 10 9 9 9 8 7 7 7 7 6 6 6 6 7 7 7 6 5 5 4 3 2 2 2 2 2 2 2 2 3 3 3 3 3 3 3 4 3 4 4
1 2 1 0 1 0 2 3 6 5 5 9 7 3 1 4 4 11 12 14 15 13 14 14 14 13 13 12 12 11 11 13 14 16 17 17 17 17 18 18 19 19 18 18 18 18 17 16 15 14 14 14 13 12 11 10 10 10 10 9 9 8 7 7 7 7 7 7 7 6 6 6 6 5 5 4 3 2 2 2 2 2 1 1 1 2 2 2 2 2 3 3 3 3 3 3 3
2 2 1 1 1 1 1 2 5 7 5 8 8 6 1 4 5 10 12 14 14 13 14 14 14 13 13 11 11 11 11 11 13 16 19 18 18 17 18 18 19 19 18 19 19 19 17 16 15 14 14 14 13 12 11 10 10 10 10 9 9 9 8 7 7 8 7 7 7 7 7 6 5 5 4 3 3 2 2 2 2 2 1 1 1 1 1 2 2 2 3 3 3 2 2 3 3
4 3 2 2 1 1 0 1 4 9 6 6 8 8 7 2 6 8 11 13 13 13 13 13 13 13 13 12 11 12 12 12 13 17 19 19 18 18 18 18 19 19 18 18 19 19 18 16 15 14 14 14 13 12 11 10 9 9 10 9 9 9 8 8 8 8 8 7 7 8 7 6 5 4 4 3 3 2 2 3 3 2 2 1 1 1 1 1 2 2 3 3 3 3 2 3 3
5 3 2 2 1 1 1 2 3 9 7 6 8 8 10 7 6 8 10 12 12 12 12 11 12 13 13 13 12 12 13 13 14 18 19 19 19 19 18 18 19 19 18 19 19 20 20 19 17 15 15 15 14 12 11 11 11 10 10 10 9 9 8 9 9 9 8 8 8 8 8 7 6 5 4 4 3 3 3 3 3 2 2 2 2 1 1 1 1 2 2 2 3 3 3 3 3
3 3 3 2 0 1 1 2 1 7 6 6 9 9 9 8 6 9 10 12 12 13 13 12 12 13 13 14 14 14 14 13 15 18 19 19 19 19 18 18 18 18 17 18 20 20 22 22 20 17 16 16 16 15 14 14 14 12 11 11 10 9 10 10 10 10 9 9 9 8 8 8 7 6 6 5 4 4 4 4 4 3 3 2 2 1 0 1 1 1 2 2 3 3 3 3 3
1 1 1 0 1 1 1 3 1 6 6 3 6 7 10 10 7 9 11 13 14 15 15 15 16 15 13 15 16 15 13 12 14 16 18 20 19 19 19 17 19 19 19 20 20 20 21 22 22 20 18 17 17 19 19 18 16 14 11 11 10 9 12 12 10 11 10 9 9 8 9 9 9 8 7 6 6 5 5 5 4 3 3 3 2 2 1 1 1 1 1 2 3 3 3 3 3
2 1 2 1 1 1 1 3 2 5 5 2 3 6 9 10 8 9 13 14 14 15 17 17 17 15 13 14 15 14 14 13 14 15 18 20 20 20 19 18 19 20 20 21 21 21 21 21 22 23 22 19 19 21 22 20 19 17 13 11 10 9 11 12 10 11 11 9 9 9 9 9 10 9 9 8 7 6 6 5 4 4 4 3 2 2 2 1 1 1 1 1 2 2 2 3 3
3 2 4 2 1 2 1 4 4 4 5 3 1 5 7 7 7 9 13 14 13 14 17 15 14 15 15 15 14 14 16 15 15 15 17 19 20 21 20 19 19 20 19 20 20 21 21 21 23 26 26 23 23 23 23 21 20 18 15 14 12 10 11 12 12 12 11 11 10 9 9 9 10 10 10 8 7 7 6 6 5 4 4 4 3 3 2 1 1 1 1 1 2 2 1 2 2
3 4 5 3 2 3 1 3 2 3 6 3 2 4 4 4 6 7 9 12 12 12 14 13 13 14 15 14 13 14 15 15 16 16 16 19 20 21 21 20 20 20 20 20 21 22 21 22 26 28 28 27 26 25 24 23 21 18 16 14 13 12 12 12 12 12 12 12 11 10 10 10 11 11 10 9 8 8 7 6 5 5 5 4 4 3 2 2 2 2 2 1 2 2 1 1 1
3 5 7 6 5 5 2 1 3 2 3 2 2 4 1 1 4 5 6 10 12 11 13 14 13 14 14 14 14 15 15 15 15 16 17 19 21 21 21 21 21 20 20 21 22 23 23 23 27 29 28 28 27 26 25 25 23 20 19 17 14 13 12 13 14 13 13 13 11 11 11 11 11 11 11 10 9 9 8 7 6 6 6 5 4 4 3 3 3 2 2 2 2 2 2 2 1
4 4 7 8 7 6 4 1 2 2 0 1 1 4 2 0 1 2 2 8 11 11 13 15 13 14 15 14 14 14 15 15 15 16 17 19 22 23 22 23 23 22 21 21 21 22 23 24 28 30 30 29 28 28 27 26 25 23 22 20 16 15 13 14 18 15 13 14 12 12 12 12 12 11 11 11 11 10 9 7 7 6 6 5 5 4 4 3 3 3 2 2 2 2 2 2 2
2 3 5 9 10 9 7 4 3 2 2 1 3 3 3 2 2 5 2 5 8 10 12 13 12 14 16 16 16 16 16 15 15 16 17 19 23 24 24 24 24 23 22 21 21 21 22 25 29 31 30 30 30 30 29 28 28 26 25 21 19 18 14 15 19 17 14 14 12 12 12 12 12 12 12 12 12 12 10 9 8 7 7 6 6 5 5 4 3 3 3 3 3 3 3 2 1
2 4 5 7 8 8 7 5 3 0 2 3 3 4 3 1 4 7 4 2 2 4 8 10 12 13 15 16 17 18 17 16 16 17 17 20 23 25 26 26 26 26 23 23 23 22 23 25 29 30 30 31 31 31 31 30 30 29 27 23 22 21 17 17 19 17 16 14 13 13 13 13 13 12 13 13 13 13 11 10 9 8 7 7 7 6 6 5 5 4 4 4 4 3 3 3 1
2 4 4 3 3 3 3 3 2 2 2 4 4 6 5 1 5 7 6 6 8 8 8 9 11 14 15 16 17 17 16 16 16 16 18 21 24 26 26 26 27 26 24 24 24 22 23 25 27 29 30 30 31 32 32 32 31 30 29 27 24 23 21 20 19 18 17 16 14 15 14 14 14 13 13 13 14 14 13 11 10 9 8 7 7 7 7 7 6 6 5 5 4 4 4 3 2
5 6 4 4 3 2 2 1 2 2 4 4 5 8 6 1 4 6 6 7 9 9 8 9 9 13 16 15 15 16 15 15 15 15 17 21 24 24 25 26 26 26 24 24 24 22 23 24 26 29 30 30 31 32 33 33 33 32 31 30 27 25 24 22 20 19 19 18 17 17 16 16 16 15 14 14 14 15 14 12 11 10 9 8 7 7 7 6 5 6 6 5 5 4 4 4 4
6 6 5 4 3 2 2 2 2 4 4 2 2 6 6 1 3 6 7 8 11 10 9 11 11 10 14 15 15 15 15 15 15 15 16 17 19 22 24 25 25 25 23 23 24 23 23 24 26 27 28 30 31 32 33 34 34 33 33 31 29 28 27 25 23 22 21 21 20 19 18 18 17 17 16 15 15 15 15 14 12 12 11 9 8 8 7 7 6 6 6 6 5 5 5 5 5
6 5 5 5 3 4 5 3 4 5 3 1 0 3 4 2 4 6 8 9 12 11 9 11 12 10 10 14 16 14 14 15 14 14 14 14 15 19 23 24 24 24 24 25 25 24 23 24 27 28 29 32 33 32 33 34 35 35 34 33 31 30 29 27 26 24 23 23 21 20 19 19 19 19 18 18 17 16 16 15 14 13 13 12 10 9 8 8 7 7 7 6 6 6 5 5 5
8 7 7 6 4 6 7 4 3 4 3 1 0 2 3 5 4 7 8 8 11 11 10 10 10 11 9 10 15 14 14 15 14 13 14 13 14 19 23 24 24 25 26 27 26 25 24 24 28 29 30 33 34 33 34 34 35 36 35 34 32 31 30 29 28 26 25 25 23 22 21 19 19 19 19 19 18 17 16 16 16 15 14 13 12 11 10 9 9 8 8 7 7 7 6 6 6
6 5 5 6 4 4 5 5 5 5 4 3 2 2 3 6 5 7 8 7 10 10 11 12 11 12 11 4 10 14 15 15 14 14 15 15 16 19 21 22 24 25 27 28 27 26 25 25 29 31 30 32 34 34 34 35 35 36 35 35 33 32 32 31 30 28 27 26 25 24 23 22 20 19 19 18 17 16 15 16 16 16 15 14 13 13 12 11 10 10 9 9 8 8 8 7 7
3 1 3 4 3 2 1 2 2 3 4 3 3 2 2 5 5 7 10 9 11 12 13 15 15 14 13 9 3 5 10 14 15 15 16 17 18 19 19 21 24 25 27 28 27 27 27 27 31 33 33 34 36 35 35 35 35 36 36 35 35 34 33 32 31 30 28 27 27 26 26 24 22 20 19 18 17 16 16 15 15 16 16 15 14 14 13 13 12 11 11 11 10 10 10 9 8
3 4 4 1 1 1 1 2 1 1 6 4 2 3 4 3 4 7 13 12 13 15 15 16 16 16 14 12 10 8 6 8 13 15 16 17 19 21 21 23 24 25 27 28 27 29 31 31 31 33 33 33 35 36 36 36 35 36 36 36 35 35 34 33 32 32 30 29 28 28 27 26 25 22 20 19 18 17 16 16 16 16 17 17 16 15 15 14 14 13 13 12 12 11 12 11 10
2 4 3 2 1 1 0 2 3 5 8 3 3 5 5 1 1 8 15 14 15 16 15 15 16 16 15 13 11 11 11 9 10 14 16 17 19 23 24 26 26 27 28 29 29 31 33 34 33 33 32 32 34 36 34 34 35 35 35 36 37 36 35 34 33 32 32 30 30 28 27 27 27 24 22 20 19 18 18 17 17 17 17 17 17 17 16 16 15 14 14 13 12 12 13 14 13
2 2 2 1 2 3 1 2 4 7 7 4 4 6 6 4 4 9 13 14 15 15 15 15 16 16 14 13 14 14 12 10 9 11 14 14 18 23 24 25 25 27 28 29 29 30 30 31 31 31 32 34 36 35 34 35 35 34 34 37 38 38 36 35 33 33 32 31 30 30 29 28 28 26 24 22 21 20 19 18 18 17 17 17 18 18 18 17 16 16 15 13 13 13 13 14 15
2 2 1 1 1 1 2 1 1 4 5 4 4 4 4 5 6 9 10 11 13 14 13 13 14 15 13 12 13 13 12 10 8 8 12 13 16 22 24 24 25 25 26 27 28 29 29 29 29 28 29 31 33 32 32 35 35 33 34 36 38 38 37 36 35 34 33 32 32 31 31 30 29 28 26 24 23 22 21 20 19 18 18 18 18 18 18 18 17 17 16 14 13 14 14 14 14
2 2 3 3 2 1 1 2 2 1 3 4 5 4 4 4 5 7 8 10 11 12 12 11 12 13 13 13 12 12 12 11 10 6 8 13 16 20 22 23 23 23 24 25 26 28 28 27 28 28 27 28 29 28 28 30 31 31 33 36 36 37 38 37 35 34 34 34 33 33 32 31 30 29 28 27 26 25 23 22 21 21 20 19 19 18 17 18 18 18 18 17 16 16 15 14 14
6 4 3 3 2 1 3 3 1 1 1 1 4 5 4 4 4 5 7 8 9 11 11 10 11 13 13 13 13 13 13 13 13 11 5 3 9 17 21 21 21 20 21 23 24 24 26 27 26 27 27 27 28 27 27 28 30 30 32 34 33 33 36 35 33 32 34 34 34 34 33 32 32 31 30 29 28 27 26 24 24 23 22 21 21 20 18 18 19 19 19 18 18 18 17 16 16
Wind_Direction
144 147 155 147 137 138 138 173 212 136 236 254 245 250 170 126 168 165 137 136 133 134 128 126 134 128 115 107 114 84 46 57 36 356 91 112 133 137 143 142 140 139 138 139 140 141 141 139 138 137 137 137 131 130 132 128 127 127 126 126 129 136 138 132 123 117 114 112 106 103 103 102 102 101 100 99 97 94 93 93 94 96 95 95 96 98 101 102 100 101 103 102 104 104 106 111 109
151 150 151 141 139 155 134 196 257 157 220 257 241 198 136 139 184 161 136 138 123 128 131 126 122 98 86 99 112 97 58 38 48 82 98 126 131 133 142 144 142 140 139 139 142 142 141 139 137 137 139 139 136 137 135 134 135 132 130 131 133 136 132 125 118 115 113 109 105 103 102 100 100 101 102 98 96 96 95 95 95 94 93 94 96 96 99 102 105 107 105 102 103 107 108 110 110
151 146 148 145 147 195 128 174 265 218 246 270 252 157 136 155 147 126 122 122 120 129 127 121 106 81 107 117 99 73 75 60 105 110 116 136 135 138 144 144 143 140 139 140 143 142 140 138 136 138 139 138 139 139 137 138 139 135 133 131 131 132 127 120 114 113 111 106 103 100 99 100 101 103 102 98 98 97 93 94 93 92 92 93 94 92 92 96 108 110 106 106 103 107 110 108 108
151 147 148 159 158 181 185 202 266 290 265 270 343 94 359 98 132 115 114 127 131 134 130 125 104 39 88 115 84 62 92 100 121 121 131 144 141 142 145 146 145 142 140 142 144 141 141 140 138 140 139 140 141 140 139 139 137 133 133 129 128 128 122 116 114 113 108 103 99 96 99 100 102 104 102 99 98 96 94 94 92 89 88 90 92 88 87 93 103 103 101 101 98 103 107 105 105
150 148 147 212 187 150 232 249 238 252 273 314 326 45 30 115 133 120 124 134 136 138 136 131 109 84 68 75 41 81 105 116 134 133 136 139 138 142 146 148 147 145 144 145 145 142 143 143 143 144 142 143 143 141 141 137 134 132 130 126 123 122 118 115 114 110 105 100 95 95 97 97 103 105 102 101 98 97 96 95 93 90 86 88 88 84 86 93 101 106 102 98 98 103 105 105 105
148 150 169 297 257 193 244 256 258 262 310 312 292 24 78 133 133 129 130 128 124 125 128 120 118 119 92 62 50 86 111 127 143 145 139 139 141 143 145 148 149 145 144 146 146 143 145 145 145 146 144 143 143 142 140 136 134 132 127 121 118 118 117 115 113 108 103 98 95 95 95 97 104 104 101 100 99 97 93 90 89 89 88 85 83 82 83 82 89 100 101 100 102 104 105 105 102
148 155 189 237 186 226 254 266 282 290 352 12 299 3 123 143 134 136 136 131 128 123 118 119 124 117 98 97 86 76 81 129 144 148 142 140 142 143 145 148 147 145 143 146 145 145 147 144 144 143 141 142 142 142 140 137 134 129 122 118 116 116 115 114 111 106 101 98 97 95 95 99 101 100 101 100 99 95 89 86 84 84 87 84 81 84 85 82 85 92 96 101 104 103 106 107 103
151 149 181 248 206 209 274 291 295 308 27 97 304 312 145 143 141 145 144 142 147 146 138 136 132 108 96 128 108 77 81 122 138 138 139 141 142 143 145 147 147 145 144 145 144 145 145 141 142 143 142 142 142 143 141 137 130 124 121 119 118 116 115 113 107 105 101 97 97 96 97 99 98 102 102 99 97 96 92 89 87 89 90 84 81 84 88 89 92 93 98 104 107 106 104 106 108
167 270 177 270 306 306 300 318 313 323 329 343 347 151 130 139 144 145 146 139 146 147 140 147 145 114 113 108 99 97 102 120 130 133 139 142 142 143 145 147 147 145 143 143 143 143 143 143 145 144 142 141 140 140 138 134 127 124 122 120 117 115 114 110 107 105 100 96 96 96 98 100 103 104 99 95 94 94 93 92 91 92 88 82 80 84 89 95 99 97 98 99 103 108 108 107 109
192 273 228 305 320 339 348 352 321 343 330 325 63 123 125 141 146 145 146 138 143 141 128 121 109 120 125 106 95 107 119 128 133 135 142 144 142 144 146 147 147 145 142 142 144 144 145 148 149 144 140 137 135 132 131 130 128 127 122 118 115 115 112 108 109 105 100 98 95 97 100 103 104 97 87 87 89 88 89 91 90 85 83 82 81 83 89 94 98 96 93 93 98 106 110 111 111
229 228 321 319 7 357 357 359 352 7 314 308 108 112 124 147 143 141 139 136 139 130 130 123 112 123 120 104 95 115 128 137 140 141 145 146 145 145 146 146 145 144 142 143 146 146 148 150 148 142 137 134 132 129 128 128 128 126 121 118 113 112 111 109 109 104 101 96 92 97 103 105 105 99 92 89 89 88 86 85 84 77 74 78 81 84 88 90 91 92 92 94 97 103 107 108 110
294 55 320 338 15 352 332 339 16 350 285 265 125 110 129 148 140 142 139 138 141 130 134 141 133 133 119 110 115 129 137 143 144 144 145 147 146 146 147 145 145 143 141 143 146 147 147 146 145 139 134 132 130 129 129 129 129 125 120 117 115 113 112 112 109 104 100 94 89 92 100 103 105 107 110 109 97 91 87 85 85 78 71 73 80 84 88 91 91 88 89 93 97 103 107 108 108
300 18 338 15 3 325 317 328 10 260 263 113 126 132 142 145 140 145 141 138 144 137 126 137 142 131 115 118 126 138 144 147 146 145 145 148 147 147 147 147 147 143 142 143 145 147 144 143 143 137 135 133 133 135 133 131 128 126 123 121 120 117 115 114 109 106 102 95 90 91 97 99 103 107 110 110 101 95 93 91 90 86 79 71 74 81 87 92 92 88 87 92 97 100 102 105 107
289 353 341 351 358 321 307 314 350 303 90 112 132 138 141 126 130 144 139 138 137 125 122 133 139 118 118 130 136 150 150 149 148 146 147 147 147 148 148 148 148 145 145 146 147 147 145 144 141 138 141 143 143 140 135 134 131 126 125 125 122 118 117 115 111 113 108 99 96 98 100 97 98 100 101 103 101 100 97 93 92 91 86 74 71 80 86 88 89 88 89 92 95 98 99 101 104
256 306 328 326 352 355 285 288 319 292 110 140 149 137 129 104 129 147 142 139 125 113 123 133 145 127 147 157 157 156 152 152 150 146 147 147 148 149 147 147 149 150 150 150 152 150 147 145 142 145 151 152 149 139 134 137 132 126 125 124 119 118 118 115 120 121 110 102 102 102 98 94 92 91 93 95 94 95 96 96 95 94 91 84 75 77 84 86 86 89 91 93 93 93 94 95 100
249 289 314 335 1 24 112 200 269 190 134 153 154 141 127 109 129 140 131 127 123 136 132 142 172 181 165 161 149 149 151 151 149 146 146 147 149 148 147 148 150 154 155 154 157 153 149 149 149 152 157 156 152 143 139 137 132 129 126 122 118 119 120 121 128 120 110 107 105 102 96 94 91 88 87 87 86 87 94 100 97 96 96 91 83 79 81 82 85 89 91 92 91 91 91 91 93
266 267 294 348 346 5 53 193 325 60 137 157 158 154 130 118 115 108 120 123 128 138 120 122 129 130 149 138 136 145 149 150 148 146 146 148 151 150 149 150 154 157 160 161 161 157 154 155 155 157 160 156 153 148 140 135 132 130 126 124 121 123 124 125 126 118 115 113 107 104 102 99 93 88 85 86 87 88 94 99 97 97 96 94 90 86 79 75 76 80 83 84 87 93 96 96 94
280 248 270 341 312 354 17 352 344 65 159 166 168 163 144 140 143 137 137 130 131 132 111 101 90 101 124 124 133 144 150 151 150 150 151 154 156 156 155 155 159 161 163 165 164 162 159 159 162 162 160 155 151 146 140 139 136 131 131 130 127 128 128 124 123 120 122 116 109 109 104 98 92 89 89 92 94 94 97 97 95 96 96 96 94 91 86 80 73 70 71 73 78 87 91 93 92
242 257 278 262 228 295 318 316 296 236 159 162 172 164 162 155 149 165 158 147 149 137 126 116 105 112 122 127 138 147 152 153 154 155 158 162 163 162 160 161 163 164 167 167 166 167 165 164 167 165 159 156 151 144 141 143 140 136 137 135 130 132 132 129 128 126 125 122 118 116 111 108 102 99 102 105 103 98 97 95 94 94 96 99 98 97 98 95 86 77 72 69 71 73 76 79 79
221 229 263 231 229 285 313 313 274 225 151 158 171 165 173 166 154 176 161 155 166 154 148 144 133 135 137 138 146 151 155 157 158 160 163 166 168 166 164 165 165 166 168 167 166 169 171 169 168 166 161 159 155 147 143 144 143 141 141 138 135 136 133 131 133 133 132 129 125 121 119 120 116 110 110 108 102 97 95 94 93 93 94 98 99 97 97 99 97 91 82 76 74 71 69 70 71
197 212 252 216 226 294 328 346 289 176 158 158 159 165 178 170 163 177 156 157 181 174 163 155 149 149 147 148 152 156 159 160 162 164 167 169 169 167 166 167 167 165 166 167 168 169 173 172 169 169 165 162 158 152 146 146 147 146 144 142 141 140 136 133 136 137 136 133 130 127 124 124 120 115 112 106 100 95 93 90 88 90 91 93 95 94 93 94 94 89 82 77 76 75 74 73 74
236 233 257 260 269 287 309 334 170 138 148 153 158 171 170 163 174 184 171 169 188 175 165 152 150 153 153 154 156 159 162 163 166 168 170 172 170 167 165 167 168 166 167 169 169 169 172 173 172 171 168 167 162 154 152 150 150 149 146 144 145 143 139 137 137 138 137 135 134 132 129 126 121 118 114 107 101 95 91 89 87 89 92 92 90 90 91 89 86 83 78 74 73 78 77 73 70
248 248 257 259 262 270 283 265 175 150 156 163 167 164 151 166 184 190 189 217 79 150 150 147 149 154 154 155 158 162 165 167 169 171 173 174 171 166 166 169 170 169 170 170 168 168 172 175 176 173 170 171 164 156 157 155 153 152 149 149 148 146 144 141 138 138 137 136 137 136 134 129 124 121 115 107 102 97 92 91 90 91 92 91 89 87 86 83 81 78 75 73 74 76 70 62 58
242 261 267 271 267 258 263 238 187 174 172 167 158 152 157 179 185 186 193 85 107 138 139 144 144 150 154 156 161 165 167 169 171 174 174 174 172 166 166 170 171 171 170 168 167 168 174 177 179 176 173 173 168 164 163 158 158 155 151 154 153 151 150 145 142 141 139 138 138 141 140 134 129 123 117 110 104 100 96 95 94 93 92 90 89 85 81 79 77 73 71 71 71 67 61 58 56
230 256 270 280 280 268 261 222 187 175 167 152 152 160 168 177 167 182 188 134 134 141 138 143 142 149 158 161 164 167 168 171 173 175 175 174 172 165 165 171 173 175 171 166 169 171 175 179 180 178 176 177 173 171 168 162 162 159 155 159 160 158 154 150 148 144 142 141 140 144 143 138 132 125 119 114 109 105 101 100 99 97 94 89 84 79 79 77 73 69 65 63 59 55 60 60 57
218 249 274 285 291 293 275 203 178 166 154 156 161 161 164 166 154 183 187 152 143 145 142 146 149 155 161 164 167 169 170 173 174 175 176 174 171 168 169 173 177 179 173 167 172 174 176 180 181 180 178 179 178 175 172 168 168 165 165 166 164 163 160 158 152 145 144 142 142 142 141 138 131 127 123 116 116 112 108 107 106 100 91 82 74 74 78 75 75 68 59 55 48 49 57 54 51
279 265 282 282 295 312 283 178 164 155 151 167 165 154 163 170 189 198 180 161 152 147 149 152 157 162 164 165 169 172 173 174 174 173 173 173 173 171 171 175 180 180 174 172 176 177 178 181 182 183 183 181 180 180 177 173 174 174 172 169 165 167 166 162 153 146 143 141 144 142 138 138 131 130 130 123 120 116 114 113 109 98 81 73 73 74 75 74 76 69 59 51 47 51 51 46 46
307 286 292 276 307 7 67 143 153 150 149 170 153 137 162 175 213 217 166 161 163 154 153 160 164 166 167 167 169 174 175 175 175 174 174 174 174 174 174 177 179 178 177 177 178 179 180 181 182 186 188 186 184 185 183 180 180 179 176 170 167 169 167 161 153 148 145 142 145 146 142 142 137 135 134 128 124 119 118 117 108 92 77 76 82 81 80 81 78 68 56 45 48 55 47 42 41
287 283 294 280 335 53 77 122 156 163 150 163 152 137 183 195 206 191 160 160 165 160 157 164 169 167 168 170 172 177 177 176 178 179 178 176 175 176 176 177 177 176 178 179 179 181 181 181 183 187 190 190 188 187 187 186 184 181 177 172 168 169 166 162 157 152 151 148 149 153 150 146 143 140 138 132 125 122 123 119 104 87 85 88 91 85 80 81 78 64 43 36 45 46 40 35 32
264 254 285 286 293 81 79 123 161 165 148 166 182 182 180 196 194 158 159 164 163 165 165 169 172 171 175 177 178 181 180 180 181 182 180 177 177 177 177 176 177 176 176 181 181 181 181 181 184 186 190 192 189 189 190 190 187 183 179 174 171 170 168 166 165 161 159 156 154 157 153 149 148 144 141 136 130 129 128 123 103 89 98 95 87 80 71 66 68 63 46 37 40 36 32 26 25
265 224 221 290 289 90 79 160 168 163 153 176 205 246 86 165 180 162 162 168 166 170 171 173 175 176 181 183 183 183 184 186 185 183 180 178 178 179 179 178 179 178 176 181 183 182 181 182 184 185 189 191 189 190 192 191 189 186 182 178 177 177 175 173 171 170 169 164 159 160 157 153 154 151 145 141 137 133 126 116 107 99 110 97 80 77 69 59 59 58 50 42 32 27 23 18 20
338 236 189 217 288 71 92 174 183 171 157 186 208 239 44 65 164 163 165 172 171 173 174 176 179 180 183 186 188 186 185 186 187 185 182 181 181 181 183 181 182 182 179 178 179 181 183 184 185 185 188 190 189 190 192 193 191 188 186 183 182 182 182 181 179 177 176 173 166 165 166 161 163 163 154 147 140 137 128 115 118 131 123 102 86 81 73 60 56 47 42 42 29 18 16 17 17
118 248 214 115 241 171 114 161 198 181 146 186 217 253 35 45 146 161 164 176 175 175 177 178 181 183 184 186 189 189 185 185 187 189 186 184 186 185 185 185 185 184 182 179 176 178 183 186 187 187 189 191 190 190 191 194 192 191 189 187 187 187 185 185 186 185 185 185 179 176 175 171 172 173 163 154 148 152 152 139 147 165 146 109 97 90 65 46 50 39 26 26 21 13 7 11 15
160 206 182 69 254 258 151 149 191 187 167 191 216 244 264 65 128 163 168 177 178 180 181 180 182 185 186 186 188 190 189 188 189 190 188 187 188 188 187 187 186 186 184 182 180 180 181 183 187 189 191 193 192 190 191 194 194 193 192 191 192 192 193 192 193 195 195 196 192 188 184 181 183 182 176 170 166 171 172 167 167 177 184 172 131 106 51 33 42 29 13 7 14 20 5 5 11
163 171 173 131 133 222 248 79 163 181 191 198 202 231 246 193 137 164 176 179 183 184 182 183 185 187 190 190 190 191 192 194 193 191 190 190 189 188 188 187 187 188 186 184 184 184 182 181 185 189 192 194 193 191 191 193 194 195 195 195 198 199 201 200 201 203 205 206 203 198 194 196 200 199 201 200 191 194 194 183 181 194 208 200 168 145 18 26 31 19 17 12 16 24 16 11 7
130 115 125 117 118 189 247 348 176 185 194 205 205 225 243 227 172 172 181 182 188 188 184 187 189 191 195 196 195 194 195 198 195 192 191 191 190 190 189 188 188 188 187 183 183 185 185 183 184 188 193 194 193 191 191 194 194 195 196 194 197 201 203 206 207 207 209 213 212 208 207 208 210 209 212 214 209 214 216 207 203 215 224 204 183 182 351 17 25 13 21 30 25 22 22 19 8
116 110 112 92 7 196 182 343 217 194 206 216 215 231 248 240 199 182 180 183 191 192 189 191 193 195 197 197 198 196 198 199 194 192 192 192 191 190 189 188 187 187 186 184 183 186 188 189 187 187 191 194 194 192 192 194 194 192 193 194 194 197 204 209 211 212 213 217 218 218 220 219 217 216 216 218 219 223 225 219 217 226 231 216 202 209 277 327 341 359 14 30 27 24 29 24 9
197 187 165 132 221 237 34 5 336 201 218 226 210 236 252 247 225 189 178 186 196 195 192 195 198 197 197 197 198 198 198 196 191 191 191 193 193 190 189 187 186 186 186 186 187 187 189 190 190 189 191 195 198 199 199 200 200 196 192 194 192 194 205 210 213 215 217 222 223 223 227 226 222 221 221 220 221 224 226 225 225 228 231 224 223 237 261 285 281 329 5 17 16 19 25 15 6
202 215 239 212 208 270 65 35 17 190 214 268 202 235 252 249 236 199 188 195 201 198 195 198 197 196 199 199 197 196 196 194 193 192 191 194 195 191 190 189 189 190 188 189 189 188 188 189 191 195 197 198 202 206 206 206 208 206 202 201 198 196 206 210 213 218 219 225 229 228 230 228 224 222 221 222 225 225 226 227 226 227 228 228 233 247 254 257 258 282 326 358 357 4 24 17 8
196 206 228 214 140 256 160 63 47 168 218 297 264 251 262 256 241 212 205 206 207 203 199 199 195 195 200 201 198 195 194 194 194 195 194 195 195 193 192 191 191 191 190 190 189 188 190 191 195 200 203 205 208 210 208 208 210 210 211 214 212 210 212 212 217 223 224 227 231 231 230 224 221 220 219 222 225 226 228 228 226 226 229 231 232 245 250 264 291 314 327 339 337 339 19 22 10
194 207 232 233 205 244 251 40 17 203 225 261 279 270 264 248 244 229 213 209 211 205 198 198 193 195 201 204 204 199 197 196 195 197 196 194 194 193 193 192 191 192 191 190 190 190 192 195 200 203 205 207 210 211 208 208 209 209 212 216 217 217 215 212 214 219 224 227 229 230 228 220 217 216 216 220 222 225 228 228 229 229 232 235 237 251 265 287 297 303 316 323 322 315 324 350 350
212 205 221 231 227 237 241 29 327 267 210 191 262 269 228 171 248 241 207 202 210 202 196 202 195 190 198 204 206 204 202 199 196 198 196 195 195 194 193 192 193 194 194 193 192 193 194 196 201 204 204 206 209 211 209 207 206 208 209 207 206 207 205 205 207 209 217 222 223 223 224 219 214 213 213 215 219 224 227 226 228 229 232 238 243 255 268 283 285 279 285 296 301 284 274 287 286
237 193 203 215 217 225 223 222 280 273 244 98 262 272 283 294 290 297 220 200 205 200 202 207 199 191 196 203 205 202 202 200 197 198 197 196 195 194 194 193 195 197 196 195 193 194 194 195 201 204 205 206 206 208 209 207 206 209 212 209 206 205 200 205 210 211 217 222 221 220 220 217 213 212 213 214 217 223 225 224 224 227 232 238 243 253 262 274 279 265 261 263 265 260 252 268 282
225 152 184 202 207 212 209 210 237 286 324 280 212 241 278 279 9 5 319 217 208 209 215 214 206 199 199 203 204 202 202 199 197 198 197 197 195 196 196 194 197 200 197 194 193 194 194 197 203 204 205 206 206 207 209 208 207 209 212 213 213 214 209 210 213 214 219 221 219 218 217 215 213 212 213 215 216 220 221 222 223 224 228 234 238 246 251 257 262 255 250 244 244 245 238 252 293
215 163 174 193 206 206 199 207 218 300 294 258 188 193 240 252 30 16 11 352 311 275 257 241 225 213 207 207 206 204 203 201 199 198 197 197 196 196 197 196 198 199 196 194 194 194 194 199 204 204 204 206 207 207 208 209 210 209 211 213 217 218 216 215 215 216 219 219 218 217 216 216 215 214 216 217 217 217 218 221 224 224 227 232 233 237 242 247 250 245 243 241 238 236 232 239 267
179 153 151 149 162 163 177 202 176 135 233 245 189 192 224 25 36 20 24 18 354 334 311 274 241 224 216 214 211 207 205 203 202 202 199 197 196 196 196 197 198 198 196 194 194 193 193 197 201 203 204 205 206 208 208 210 211 210 211 214 217 219 218 217 218 218 220 220 219 220 220 220 220 218 218 220 219 218 218 220 224 225 228 231 229 231 237 241 242 236 237 239 235 232 231 236 254
127 147 161 135 115 111 126 122 131 167 214 231 203 200 221 270 51 30 20 1 345 333 327 313 271 234 217 215 215 211 207 206 203 204 203 198 196 197 196 197 198 197 195 194 192 192 192 194 198 201 203 204 205 207 208 210 211 211 212 214 217 218 217 216 217 218 219 220 220 221 223 225 225 225 224 224 225 222 220 219 223 226 229 230 228 231 235 234 232 230 234 238 237 240 239 242 256
143 165 181 161 134 137 148 122 171 208 204 214 206 198 213 231 53 26 8 360 354 343 333 331 315 267 226 213 213 212 210 209 204 203 205 199 194 193 194 196 196 194 193 192 192 192 191 192 195 197 200 203 205 206 208 209 210 211 213 215 217 218 217 217 217 219 220 220 221 222 225 227 229 230 229 229 229 226 223 221 221 224 227 228 229 232 233 229 227 229 234 238 242 248 251 257 262
182 186 184 180 162 164 183 174 189 210 198 95 43 196 188 108 63 17 5 7 3 354 342 337 333 314 255 217 207 208 209 208 207 204 203 200 193 190 192 194 191 189 191 192 193 193 190 192 195 195 199 204 205 206 207 209 210 212 213 215 216 217 218 219 221 223 224 224 224 225 227 229 231 231 232 232 231 230 229 225 222 223 225 227 229 233 235 232 230 234 238 242 248 251 256 263 267
192 188 186 191 174 174 184 168 167 202 194 147 329 214 165 125 79 19 10 5 2 0 354 349 348 344 316 235 208 205 207 206 205 204 201 201 198 192 192 192 189 190 193 194 194 193 190 190 194 196 200 204 205 206 207 209 210 213 214 215 217 218 218 221 224 225 226 228 229 231 233 235 235 234 235 235 235 234 233 231 229 229 229 228 229 232 233 232 231 235 241 244 251 254 254 260 271
180 186 189 194 194 188 185 176 177 177 156 130 169 205 162 144 115 37 18 3 5 7 3 4 6 2 354 300 213 206 208 207 204 203 202 200 198 195 192 190 190 193 195 195 194 192 188 188 193 196 198 201 204 206 207 209 211 213 215 216 218 219 220 222 225 227 229 231 233 235 237 240 241 240 239 239 239 238 238 238 236 235 235 233 232 233 232 233 233 236 240 243 249 255 255 259 271
143 166 202 197 212 217 147 168 179 155 141 129 163 177 69 125 131 41 18 12 13 12 10 13 11 8 12 15 348 241 221 212 206 205 206 200 194 193 193 193 194 194 193 195 194 191 189 190 195 199 200 202 205 206 208 209 211 212 214 216 218 220 221 222 226 229 231 233 234 236 239 241 244 244 244 243 243 243 244 245 243 241 240 238 236 235 233 233 235 237 241 244 247 252 255 259 270
148 164 192 166 348 321 121 139 44 146 176 162 138 123 67 130 154 18 9 12 16 14 14 15 11 10 15 17 7 347 308 249 221 210 206 202 194 192 194 196 196 194 193 194 193 192 193 194 196 198 200 202 204 206 208 209 210 212 214 216 217 219 221 223 225 228 231 233 234 236 238 241 243 245 246 246 246 248 249 250 249 246 245 243 241 239 235 235 236 238 242 246 248 250 253 257 263
179 168 157 90 39 310 304 164 155 187 188 154 86 102 68 70 197 5 3 9 13 11 11 12 13 14 13 8 360 350 337 311 264 225 209 204 198 196 198 199 199 195 194 195 194 194 198 198 197 197 197 199 203 206 207 207 209 211 213 215 217 219 221 222 224 227 229 231 233 235 235 238 241 243 245 247 248 250 252 252 251 250 250 248 245 242 239 238 238 240 243 248 251 251 255 257 259
46 99 90 90 193 189 198 185 175 188 185 131 106 112 64 26 353 356 360 5 7 6 7 11 14 14 11 4 357 350 342 330 300 246 219 207 204 203 202 201 200 196 194 196 196 195 198 199 198 199 198 201 205 205 205 208 210 210 212 216 218 220 221 221 223 226 229 231 232 233 234 236 239 241 243 246 247 249 252 253 252 253 253 251 248 246 243 242 241 242 245 248 251 254 257 259 259
69 97 68 357 308 205 188 186 194 199 178 140 140 137 72 35 358 354 2 7 8 10 9 10 14 13 11 7 1 354 348 343 323 265 228 213 208 207 206 204 203 199 194 195 196 196 198 199 199 199 199 201 203 202 203 208 209 209 212 217 218 220 221 222 224 226 228 230 232 233 234 235 237 239 241 243 245 247 250 252 253 255 254 252 250 247 246 245 243 244 246 246 248 254 259 260 258
35 59 43 27 347 280 158 74 10 270 184 159 155 135 76 41 3 359 9 9 11 16 14 11 13 12 13 12 9 4 359 357 352 317 237 218 211 208 209 208 205 201 194 193 196 197 199 199 199 199 199 199 200 200 203 206 206 207 212 216 218 220 222 222 223 225 227 229 232 234 235 235 236 238 240 241 243 245 248 250 252 255 255 254 253 251 249 248 247 247 249 249 250 255 256 256 255
37 49 28 2 352 236 186 170 117 19 344 166 151 131 87 40 7 4 12 10 9 12 11 12 14 13 14 15 14 14 12 10 12 14 8 262 220 211 210 207 202 198 190 188 193 197 198 200 200 200 200 200 201 200 202 205 206 208 212 215 216 218 221 221 220 222 225 227 231 234 235 235 235 237 239 240 242 244 246 248 250 252 254 255 256 256 253 252 251 251 252 251 251 254 253 252 252